TOP > 外国特許検索

外国特許検索

表示件数 詳細検索
特許の状態
出願国

リセット

該当件数 4834件

No. 出願番号
公報番号
出願国
発明の名称
掲載日
更新日
データ提供機関
3801 2010JP002828 WO 2010/122773 世界知的所有権機関(WIPO) DEVICE FOR ADHERING ARTIFACT TO BIOLOGICAL TISSUE, AND STENT 新技術説明会 2011/07/12 2011/08/01 茨城大学
3802 06833425 1955726 欧州特許庁(EPO) APPARATUS FOR PRODUCING THE MEDICAL INSTRUMENT TO BE PLACED IN THE BODY AND METHOD OF PRODUCING THE MEDICAL INSTRUMENT TO BE PLACED IN THE BODY 2011/07/12 2012/04/25 科学技術振興機構(JST)
3803 06833466 1956032 欧州特許庁(EPO) MONOCLONAL ANTIBODY DIRECTED AGAINST CD166 AND METHOD FOR PRODUCTION THEREOF 2011/07/12 2011/07/12 科学技術振興機構(JST)
3804 00927839 1201793 欧州特許庁(EPO) METHOD AND APPARATUS FOR GROWING HIGH QUALITY SINGLE CRYSTAL 実績あり 2011/07/12 2011/07/12 科学技術振興機構(JST)
3805 00974979 1239042 欧州特許庁(EPO) TRANSPOSASE AND METHOD OF GENE MODIFICATION 実績あり 2011/07/12 2011/07/12 科学技術振興機構(JST)
3806 01945723 1296173 欧州特許庁(EPO) MULTIPLE SHARING TYPE DISPLAY DEVICE 実績あり 2011/07/12 2012/06/19 科学技術振興機構(JST)
3807 01995011 1357376 欧州特許庁(EPO) SKIN PERMEABLE GAS COLLECTOR 実績あり 2011/07/12 2011/07/12 科学技術振興機構(JST)
3808 04011291 1447127 欧州特許庁(EPO) Apparatus for producing emulsion 実績あり 2011/07/12 2011/07/12 科学技術振興機構(JST)
3809 04028678 1510251 欧州特許庁(EPO) Process and apparatus for producing microcapsules 実績あり 2011/07/12 2011/07/12 科学技術振興機構(JST)
3810 06003619 1721658 欧州特許庁(EPO) Process and apparatus for producing microcapsules 実績あり 2011/07/12 2011/07/12 科学技術振興機構(JST)
3811 06003618 1741482 欧州特許庁(EPO) Process and apparatus for producing microcapsules 実績あり 2011/07/12 2011/07/12 科学技術振興機構(JST)
3812 06020469 1745839 欧州特許庁(EPO) Apparatus for producing emulsion 実績あり 2011/07/12 2011/07/12 科学技術振興機構(JST)
3813 02700576 1362634 欧州特許庁(EPO) PROCESS FOR PRODUCING EMULSION AND APPARATUS THEREFOR 実績あり 2011/07/12 2011/07/12 科学技術振興機構(JST)
3814 03739393 1481585 欧州特許庁(EPO) System for measuring heart rate and respiration rate of small animals 実績あり 2011/07/12 2011/07/12 科学技術振興機構(JST)
3815 03809436 1560062 欧州特許庁(EPO) OPTICAL SIGNAL AMPLIFYING TRIODE, OPTICAL SIGNAL TRANSFER METHOD, OPTICAL SIGNAL RELAY DEVICE, AND OPTICAL SIGNAL STORAGE DEVICE USING THE SAME. 2011/07/12 2013/08/28 科学技術振興機構(JST)
3816 04711015 1602751 欧州特許庁(EPO) METHOD FOR PREPARING BORATE-BASED CRYSTAL 実績あり 2011/07/12 2012/10/10 科学技術振興機構(JST)
3817 04807007 1717244 欧州特許庁(EPO) Akt activity specifically inhibiting polypeptide 実績あり 2011/07/12 2015/09/28 科学技術振興機構(JST)
3818 04771550 1657818 欧州特許庁(EPO) System estimation method, program, recording medium, system estimation device 新技術説明会 実績あり 2011/07/12 2015/09/28 科学技術振興機構(JST)
3819 04807872 1705516 欧州特許庁(EPO) Optical fourier transform device and method 2011/07/12 2015/09/08 科学技術振興機構(JST)
3820 05703795 1712909 欧州特許庁(EPO) METHOD OF FORMING PLANAR LIPID DOUBLE MEMBRANE FOR MEMBRANE PROTEIN ANALYSIS AND APPARATUS THEREFOR 2011/07/12 2012/09/26 科学技術振興機構(JST)
3821 05720779 1757357 欧州特許庁(EPO) METHOD AND DEVICE FOR PRODUCING MICRO-DROPLETS 実績あり 2011/07/12 2013/05/02 科学技術振興機構(JST)
3822 05728044 1743940 欧州特許庁(EPO) CARDIOINHIBITORY/ ANTIHYPERTENSIVE NOVEL ENDOGENOUS PHYSIOLOGICALLY ACTIVE PEPTIDE 2011/07/12 2012/01/26 科学技術振興機構(JST)
3823 2381065 2381065 カナダ METHOD FOR ENRICHMENT AND/OR ISOLATION OF DOPAMINERGIC NEURONS 新技術説明会 実績あり 2011/07/12 2011/07/12 科学技術振興機構(JST)
3824 05774676 1783538 欧州特許庁(EPO) Optical element 2011/07/11 2016/01/15 科学技術振興機構(JST)
3825 07738499 2003194 欧州特許庁(EPO) Biocompatible transparent sheet, method of producing the same and cell sheet 2011/07/11 2017/10/05 科学技術振興機構(JST)
3826 09710413 2253640 欧州特許庁(EPO) Photoresponsive nucleic acid manufacturing method 2011/07/11 2015/09/04 科学技術振興機構(JST)
3827 09731957 2272856 欧州特許庁(EPO) Sequence-specific nucleic acid purification method manner 2011/07/11 2015/11/13 科学技術振興機構(JST)
3828 06796940 1930346 欧州特許庁(EPO) ANTIBODY PRODUCED USING OSTRICH AND METHOD FOR PRODUCTION THEREOF 実績あり 2011/07/11 2011/10/26 科学技術振興機構(JST)
3829 05720955 1737055 欧州特許庁(EPO) MAGNETORESISTIVE ELEMENT AND ITS MANUFACTURING METHOD 2011/07/08 2012/01/18 科学技術振興機構(JST)
3830 05783179 1808411 欧州特許庁(EPO) CERAMIC PARTICLE GROUP AND METHOD FOR PRODUCTION THEREOF AND USE THEREOF 実績あり 2011/07/08 2013/10/30 科学技術振興機構(JST)
3831 07714179 1985991 欧州特許庁(EPO) MEASURING PROBE, SAMPLE SURFACE MEASURING APPARATUS AND SAMPLE SURFACE MEASURING METHOD 新技術説明会 2011/07/08 2012/06/19 科学技術振興機構(JST)
3832 08722565 2135945 欧州特許庁(EPO) Method for of transcription-degradation dual regulation for protein by antibiotic 2011/07/08 2015/09/08 科学技術振興機構(JST)
3833 08790313 2177611 欧州特許庁(EPO) METHOD FOR MEASUREMENT OF CONCENTRATION OF ANTIGEN 2011/07/08 2013/11/27 科学技術振興機構(JST)
3834 08855467 2221065 欧州特許庁(EPO) Therapeutic or prophylactic agent, detection method and detection agent for metabolic syndrome, and method for screening of candidate compound for therapeutic agent for metabolic syndrome 2011/07/08 2017/01/13 科学技術振興機構(JST)
3835 09724420 2264436 欧州特許庁(EPO) PHASE OBJECT IDENTIFICATION DEVICE AND METHOD 2011/07/08 2013/04/24 科学技術振興機構(JST)
3836 09719898 2270015 欧州特許庁(EPO) RNA-SELECTIVE HYBRIDIZATION REAGENT AND UTILIZATION OF THE SAME 2011/07/08 2013/07/17 科学技術振興機構(JST)
3837 08791069 2178095 欧州特許庁(EPO) Transparent electroconductive thin film and process for producing the transparent electroconductive thin film 2011/07/08 2015/09/04 科学技術振興機構(JST)
3838 03728040 1505096 欧州特許庁(EPO) NOVEL POLYESTER HAVING pi -CONJUGATED GROUP IN SIDE CHAIN AND CHARGE TRANSPORTING MATERIAL USING THE SAME 2011/07/08 2011/07/08 科学技術振興機構(JST)
3839 04771221 1652934 欧州特許庁(EPO) IMPROVED METHOD OF AMPLIFYING ATP AND USE THEREOF 新技術説明会 実績あり 2011/07/08 2011/07/08 科学技術振興機構(JST)
3840 05704415 1714962 欧州特許庁(EPO) DEHYDRATING CONDENSATION AGENT HAVING PROPERTY OF ACCUMULATING AT INTERFACE WITH WATER 2011/07/08 2011/07/08 科学技術振興機構(JST)
3841 04818199 1700860 欧州特許庁(EPO) POLYCYCLIC FUSED RING TYPE PI-CONJUGATED ORGANIC MATERIALS, INTERMEDIATE THEREFOR, PROCESS FOR PRODUCING POLYCYCLIC FUSED RING TYPE PI-CONJUGATED ORGANIC MATERIALS, AND PROCESS FOR PRODUCING INTERMEDIATE FOR POLYCYCLIC FUSED RING TYPE PI-CONJUGATED ORGANIC MATERIALS 2011/07/08 2011/08/03 科学技術振興機構(JST)
3842 05720278 1724272 欧州特許庁(EPO) CHALCOGEN-CONTAINING FUSED-RING POLYCYCLIC ORGANIC MATERIAL AND PROCESS FOR PRODUCING THE SAME 2011/07/08 2013/08/28 科学技術振興機構(JST)
3843 05746027 1752884 欧州特許庁(EPO) HIGH-SPEED HIGH-ACCURACY MATRIX SINGULAR VALUE DECOMPOSITION METHOD, PROGRAM, AND DEVICE. 実績あり 2011/07/08 2013/04/10 科学技術振興機構(JST)
3844 09709008 2242042 欧州特許庁(EPO) Morphing music generating device and morphing music generating program 新技術説明会 2011/07/08 2016/09/14 科学技術振興機構(JST)
3845 05721280 1754738 欧州特許庁(EPO) PROCESS FOR PRODUCING POLYPYRIDINIUM 2011/07/08 2012/06/06 科学技術振興機構(JST)
3846 07003909 1793432 欧州特許庁(EPO) Precise and high-load-resistance moving method and device 2011/07/08 2011/07/08 科学技術振興機構(JST)
3847 05741265 1753120 欧州特許庁(EPO) METHOD AND DEVICE FOR PRECISELY RESISTING AND MOVING HIGH LOAD 2011/07/08 2011/07/08 科学技術振興機構(JST)
3848 06715044 1879015 欧州特許庁(EPO) Heterodyne laser doppler probe and measurement system using the same 2011/07/08 2019/02/01 科学技術振興機構(JST)
3849 06715045 1860396 欧州特許庁(EPO) Homodyne laser interferometer probe and displacement measurement system using the same 2011/07/08 2015/09/28 科学技術振興機構(JST)
3850 07790991 2048487 欧州特許庁(EPO) Scanning probe microscope 2011/07/08 2019/02/01 科学技術振興機構(JST)
3851 09746445 2275798 欧州特許庁(EPO) Dynamic mode afm apparatus 2011/07/08 2019/02/01 科学技術振興機構(JST)
3852 06810594 1942331 欧州特許庁(EPO) Shear measuring method and its device 新技術説明会 実績あり 2011/07/08 2015/10/09 科学技術振興機構(JST)
3853 05721687 1737045 欧州特許庁(EPO) Substrate with organic thin film and transistor using same 新技術説明会 2011/07/08 2015/11/13 科学技術振興機構(JST)
3854 09717775 2261396 欧州特許庁(EPO) COMPOUND MATERIAL, METHOD OF PRODUCING THE SAME AND APPARATUS FOR PRODUCING THE SAME 実績あり 2011/07/08 2013/06/05 科学技術振興機構(JST)
3855 04792624 1674509 欧州特許庁(EPO) PROCESS FOR PRODUCING METAL NANOPARTICLE COMPOSITE FILM 2011/07/08 2011/07/08 科学技術振興機構(JST)
3856 06832909 1956089 欧州特許庁(EPO) METHOD FOR DETECTING TARGET NUCLEIC ACID WITH SPECIFIC BASE SEQUENCE AND SET OF NUCLEIC ACIDS FOR DETECTION 2011/07/08 2012/02/14 科学技術振興機構(JST)
3857 03715409 1491210 欧州特許庁(EPO) THERAPEUTIC DRUG USING ANTIBODY-PRESENTING HOLLOW PROTEIN NANOPARTICLES AND HOLLOW PROTEIN NANOPARTICLES 実績あり 2011/07/08 2013/06/27 科学技術振興機構(JST)
3858 03794278 1538156 欧州特許庁(EPO) VERSATILE LINKER COMPOUND AND LIGAND, AND METHOD FOR PREPARATION THEREOF 実績あり 2011/07/08 2011/07/08 科学技術振興機構(JST)
3859 06737745 1869707 欧州特許庁(EPO) TECHNIQUE FOR THE GROWTH OF PLANAR SEMI-POLAR GALLIUM NITRIDE 実績あり 2011/07/07 2012/06/19 科学技術振興機構(JST)
3860 05703575 1708257 欧州特許庁(EPO) CURRENT INJECTION MAGNETIC DOMAIN WALL MOVING ELEMENT 2011/07/07 2011/07/07 科学技術振興機構(JST)
3861 06833885 1956035 欧州特許庁(EPO) Polyisocyanide derivative having controlled helical main chain structure 2011/07/07 2015/09/08 科学技術振興機構(JST)
3862 08720521 2145905 欧州特許庁(EPO) SYNTHETIC POLYMERS CONTROLLED IN SPIRAL STRUCTURE, HOST-GUEST COMPOUNDS PREPARED BY USING THE SAME, AND PROCESSES FOR PRODUCTION OF BOTH 2011/07/07 2013/03/22 科学技術振興機構(JST)
3863 04788287 1680959 欧州特許庁(EPO) MOUSE MODEL WHEREIN RESPONSIVENESS TO LIPOPOLYSACCHARIDE (LPS) IS SPECIFICALLY IMPAIRED 実績あり 2011/07/07 2011/12/27 科学技術振興機構(JST)
3864 05720120 1739104 欧州特許庁(EPO) Polymer-supported metal cluster compositions 実績あり 2011/07/07 2015/09/08 科学技術振興機構(JST)
3865 05720123 1724275 欧州特許庁(EPO) Process for producing aminophosphonic acid derivative 2011/07/07 2015/09/08 科学技術振興機構(JST)
3866 05720349 1724013 欧州特許庁(EPO) Asymmetric reaction catalyst and process for production of optically active compounds with the same 2011/07/07 2015/09/08 科学技術振興機構(JST)
3867 05710758 1731509 欧州特許庁(EPO) PROCESS FOR PRODUCING NITROGENOUS 5-MEMBERED CYCLIC COMPOUND 2011/07/07 2011/10/26 科学技術振興機構(JST)
3868 06712459 1852412 欧州特許庁(EPO) PROCESS FOR PRODUCTION OF OPTICALLY ACTIVE HYDROXYMETHYLATED COMPOUNDS AND CATALYST THEREFOR 2011/07/07 2011/07/07 科学技術振興機構(JST)
3869 07738242 1997555 欧州特許庁(EPO) IMMOBILIZED LEWIS ACID CATALYSTS COATED WITH IONIC LIQUIDS AND USE THEREOF 2011/07/07 2013/03/06 科学技術振興機構(JST)
3870 09705661 2258477 欧州特許庁(EPO) Catalyst and michael addition reaction process 2011/07/07 2015/09/04 科学技術振興機構(JST)
3871 09720699 2269979 欧州特許庁(EPO) Diamino acid derivative starting material, manufacturing method thereof, and diamino acid derivative manufacturing method 2011/07/07 2015/09/08 科学技術振興機構(JST)
3872 07739375 2006276 欧州特許庁(EPO) Process for the preparation of fullerene derivatives 2011/07/07 2019/01/30 科学技術振興機構(JST)
3873 07831598 2116521 欧州特許庁(EPO) Process for producing fullerene derivative 2011/07/07 2016/07/15 科学技術振興機構(JST)
3874 09724654 2270915 欧州特許庁(EPO) Microbial fuel cell 2011/07/07 2017/05/12 科学技術振興機構(JST)
3875 06833296 1961756 欧州特許庁(EPO) Novel bisboron compound 2011/07/07 2017/10/05 科学技術振興機構(JST)
3876 04708481 1598657 欧州特許庁(EPO) METHOD FOR THE DETERMINATION OF ABSOLUTE CONFIGURATION OF CHIRAL COMPOUNDS 実績あり 2011/07/07 2011/07/07 科学技術振興機構(JST)
3877 08841615 2214001 欧州特許庁(EPO) Raman probe comprising a field amplifying element and method for its production and uses 2011/07/07 2018/04/25 科学技術振興機構(JST)
3878 08852782 2221371 欧州特許庁(EPO) TRANSLATION REGULATION SYSTEM IN CELL OR ARTIFICIAL CELL MODEL BY USING LOW-MOLECULAR-WEIGHT RNA 2011/07/07 2013/11/20 科学技術振興機構(JST)
3879 08851746 2221367 欧州特許庁(EPO) Protein-responsive translation control system utilizing rna-protein interaction motif 2011/07/07 2017/07/19 科学技術振興機構(JST)
3880 00974855 1142591 欧州特許庁(EPO) GENE CARRIERS 実績あり 2011/07/07 2011/07/07 科学技術振興機構(JST)
3881 02703955 1369133 欧州特許庁(EPO) GENE CARRIERS COMPRISING A BETA-1,3-GLUCAN AND PROCESS FOR PRODUCING THE SAME 実績あり 2011/07/07 2012/08/07 科学技術振興機構(JST)
3882 03742658 1484614 欧州特許庁(EPO) Fluorescent sensor for phosphate ion and phosphorylated peptide 実績あり 2011/07/07 2015/09/08 科学技術振興機構(JST)
3883 06781972 1916697 欧州特許庁(EPO) MICROCHANNEL PLATE, GAS PROPORTIONAL COUNTER AND IMAGING DEVICE 2011/07/07 2013/06/27 科学技術振興機構(JST)
3884 03733149 1508586 欧州特許庁(EPO) HYDROXYAPATITE COMPOSITE, PROCESS FOR PRODUCING THE SAME, AND MEDICAL MATERIAL COMPRISING THE SAME 2011/07/07 2012/10/23 科学技術振興機構(JST)
3885 46388909 7993929 アメリカ合衆国 Method for determination of presence or absence of peptide compound PYY3-36 2011/07/06 2018/07/20 科学技術振興機構(JST)
3886 73959608 8601610 アメリカ合衆国 Optical electric field enhancement element and probe using the same 2011/07/06 2018/07/20 科学技術振興機構(JST)
3887 74659908 8222629 アメリカ合衆国 Electronic device using quantum dot 2011/07/06 2018/07/20 科学技術振興機構(JST)
3888 74390808 8592569 アメリカ合衆国 Small RNA-dependent translational regulatory system in cell or artificial cell model 2011/07/06 2018/07/20 科学技術振興機構(JST)
3889 74385308 9255274 アメリカ合衆国 Protein-responsive translational regulatory system using RNA-protein interacting motif 2011/07/06 2018/07/20 科学技術振興機構(JST)
3890 89043601 06549285 アメリカ合衆国 Two-arm Sagnac interferometer with three beam splitters 2011/07/06 2011/07/06 科学技術振興機構(JST)
3891 89043701 06552800 アメリカ合衆国 Single-arm sagnac interferometer with two beam splitters 2011/07/06 2011/07/06 科学技術振興機構(JST)
3892 01912238 1179592 欧州特許庁(EPO) PROTEINS NECTIN-3 実績あり 2011/07/06 2011/07/06 科学技術振興機構(JST)
3893 00979061 1235065 欧州特許庁(EPO) METHOD OF DETERMINING ABSOLUTE CONFIGURATION OF CHIRAL COMPOUND 2011/07/06 2011/07/06 科学技術振興機構(JST)
3894 00981737 1162519 欧州特許庁(EPO) PRODUCTION METHOD AND DEVICE FOR HOLOGRAM 2011/07/06 2011/07/06 科学技術振興機構(JST)
3895 02775366 1445237 欧州特許庁(EPO) 12CaO 7Al2O3 COMPOUND AND METHOD FOR PREPARATION THEREOF 実績あり 2011/07/06 2019/04/25 科学技術振興機構(JST)
3896 02779976 1443130 欧州特許庁(EPO) NATURAL SUPERLATTICE HOMOLOGOUS SINGLE CRYSTAL THIN FILM, METHOD FOR PREPARATION THEREOF, AND DEVICE USING SAID SINGLE CRYSTAL THIN FILM 実績あり 2011/07/06 2011/10/05 科学技術振興機構(JST)
3897 03705133 1475678 欧州特許庁(EPO) METHOD FOR PRODUCING A HOLOGRAM BY PICOSECOND LASER 2011/07/06 2012/01/18 科学技術振興機構(JST)
3898 03705304 1489654 欧州特許庁(EPO) METHOD OF MANUFACTURING LnCuO(S, Se, Te) MONOCRYSTALLINE THIN FILM 2011/07/06 2015/09/08 科学技術振興機構(JST)
3899 03717660 1500631 欧州特許庁(EPO) Hydrogen-containing electrically conductive inorganic compound 実績あり 2011/07/06 2017/08/08 科学技術振興機構(JST)
3900 04710529 1650164 欧州特許庁(EPO) Electroconductive 12cao.7al2o3, 12sro.7al2o3 or mixture thereof and method for preparation thereof 実績あり 2011/07/06 2016/01/06 科学技術振興機構(JST)

PAGE TOP